Flag for Germany Past Weather in Geislingen an der Steige, Baden-Württemberg, Germany — Yesterday and Last 2 Weeks

Now
72 °F

Scattered clouds.


Feels Like: 75 °F
Forecast: 55 / 67 °F
Wind: 10 mph from Southwest

Location: Laupheim Airport

Current Time: Jun 25, 2016 at 12:45:02 PM

Latest Report: Jun 25, 2016 at 11:20 AM


Visibility: N/A

Pressure: 29.98 "Hg

Humidity: 69%

Dew Point: 61 °F

Location of Geislingen an der SteigeLocation

Past Weather in Geislingen an der Steige — Graph

°F

Geislingen an der Steige Temperature Yesterday

Maximum temperature yesterday: 90 °F (at 3:20 PM)
Minimum temperature yesterday: 61 °F (at 4:20 AM)
Average temperature yesterday: 75 °F

High & Low Weather Summary for the Past Weeks

 TemperatureHumidityPressure
High90 °F (Jun 23, 4:20 PM)100% (Jun 20, 2:20 AM)30.30 "Hg (Jun 20, 2:20 AM)
Low46 °F (Jun 20, 5:20 AM)31% (Jun 23, 4:20 PM)29.59 "Hg (Jun 14, 2:20 PM)
Average61 °F78%29.95 "Hg
* Reported Jun 10 11:20 AM — Jun 25 11:20 AM, Geislingen an der Steige, Weather by CustomWeather, © 2016

Note: Actual official high and low records may vary slightly from our data, if they occured in-between our weather recording intervals... More about our weather records

Advertising

Geislingen an der Steige Weather History for the Previous 24 Hours

Scroll right to see more
 ConditionsComfort  
Time TempWeatherWind HumidityBarometerVisibility
11:20 AM
Sat, Jun 25
72 °FScattered clouds.10 mph69%29.98 "HgN/A
10:20 AM70 °FBroken clouds.9 mph78%29.98 "HgN/A
9:20 AM70 °FScattered clouds.7 mph73%30.01 "HgN/A
8:20 AM66 °FScattered clouds.8 mph83%29.98 "HgN/A
7:20 AM63 °FScattered clouds.3 mph88%29.98 "HgN/A
6:20 AM61 °FPassing clouds.7 mph94%29.98 "HgN/A
5:20 AM61 °FPassing clouds.8 mph94%29.98 "HgN/A
4:20 AM61 °FPartly cloudy.6 mph94%29.95 "HgN/A
3:20 AM63 °FPassing clouds.3 mph88%29.98 "HgN/A
2:20 AM64 °FPassing clouds.7 mph83%30.01 "HgN/A
1:20 AM64 °FPassing clouds.6 mph83%30.04 "Hg6 mi
12:20 AM64 °FRain. Passing clouds.13 mph88%30.07 "Hg5 mi
11:20 PM
Fri, Jun 24
64 °FThunderstorms. Partly cloudy.6 mph83%30.07 "Hg4 mi
10:20 PM64 °FStrong thunderstorms. Partly sunny.24 mph78%30.07 "Hg5 mi
9:47 PM66 °FStrong thunderstorms. Partly sunny.10 mph88%30.01 "HgN/A
9:20 PM70 °FThunderstorms. Partly sunny.13 mph83%30.01 "HgN/A
8:20 PM81 °FThundershowers. Scattered clouds.6 mph62%29.98 "HgN/A
7:20 PM86 °FPassing clouds.6 mph52%30.01 "HgN/A
6:20 PM88 °FPassing clouds.3 mph46%29.98 "HgN/A
5:20 PM88 °FPassing clouds.2 mph43%30.01 "HgN/A
4:20 PM90 °FPassing clouds.2 mph41%30.04 "HgN/A
3:20 PM90 °FPassing clouds.6 mph41%30.07 "HgN/A
3:00 PM88 °FPassing clouds.3 mph43%30.07 "HgN/A
2:20 PM86 °FPassing clouds.3 mph49%30.07 "HgN/A
1:20 PM86 °FPassing clouds.5 mph49%30.09 "HgN/A
12:20 PM84 °FPassing clouds.5 mph55%30.09 "HgN/A
Weather by CustomWeather, © 2016

See weather overviewHow to use our weather pages